• In India
  • List of Countries
  • For 7 days
  • Water Temperature
  • Satellite Maps
  • Weather Map
  • Weather Widgets
  • user-avatar
    Login

    Hourly Weather Miekinia

    Today, 19 September, Wednesday

    Time Temperature Precipitation Wind Pressure Humidity
    00:00 +20°C° 0 mm 4 mps 753 mmHg 62%
    01:00 +20°C° 0 mm 4 mps 753 mmHg 62%
    02:00 +19°C° 0 mm 3 mps 753 mmHg 63%
    03:00 +19°C° 0 mm 3 mps 753 mmHg 64%
    04:00 +19°C° 0 mm 3 mps 753 mmHg 65%
    05:00 +19°C° 0 mm 3 mps 753 mmHg 66%
    06:00 +19°C° 0 mm 2 mps 753 mmHg 66%
    07:00 +19°C° 0 mm 2 mps 754 mmHg 67%
    08:00 +21°C° 0 mm 2 mps 754 mmHg 62%
    09:00 +24°C° 0 mm 2 mps 754 mmHg 57%
    10:00 +26°C° 0 mm 2 mps 754 mmHg 52%
    11:00 +27°C° 0 mm 2 mps 754 mmHg 50%
    12:00 +28°C° 0 mm 2 mps 754 mmHg 47%
    13:00 +29°C° 0 mm 2 mps 754 mmHg 45%
    14:00 +29°C° 0 mm 2 mps 754 mmHg 46%
    15:00 +29°C° 0 mm 1 mps 754 mmHg 47%
    16:00 +29°C° 0 mm 1 mps 753 mmHg 48%
    17:00 +27°C° 0 mm 1 mps 754 mmHg 53%
    18:00 +25°C° 0 mm 2 mps 754 mmHg 58%
    19:00 +24°C° 0 mm 2 mps 754 mmHg 63%
    20:00 +23°C° 0 mm 2 mps 754 mmHg 66%
    21:00 +21°C° 0 mm 2 mps 754 mmHg 68%
    22:00 +21°C° 0 mm 2 mps 754 mmHg 70%
    23:00 +20°C° 0 mm 2 mps 754 mmHg 71%

    Tomorrow, 20 September, Thursday

    Time Temperature Precipitation Wind Pressure Humidity
    00:00 +20°C° 0 mm 2 mps 754 mmHg 73%
    01:00 +20°C° 0 mm 2 mps 754 mmHg 74%
    02:00 +19°C° 0 mm 2 mps 754 mmHg 75%
    03:00 +19°C° 0 mm 2 mps 754 mmHg 76%
    04:00 +19°C° 0 mm 2 mps 754 mmHg 78%
    05:00 +19°C° 0 mm 2 mps 754 mmHg 77%
    06:00 +20°C° 0 mm 2 mps 754 mmHg 76%
    07:00 +20°C° 0 mm 2 mps 754 mmHg 75%
    08:00 +23°C° 0 mm 2 mps 754 mmHg 68%
    09:00 +25°C° 0 mm 2 mps 754 mmHg 62%
    10:00 +27°C° 0 mm 2 mps 754 mmHg 55%
    11:00 +28°C° 0 mm 2 mps 754 mmHg 52%
    12:00 +29°C° 0 mm 2 mps 754 mmHg 48%
    13:00 +30°C° 0 mm 2 mps 754 mmHg 45%
    14:00 +30°C° 0 mm 2 mps 754 mmHg 45%
    15:00 +30°C° 0 mm 2 mps 753 mmHg 45%
    16:00 +30°C° 0 mm 1 mps 753 mmHg 46%
    17:00 +28°C° 0 mm 1 mps 753 mmHg 51%
    18:00 +26°C° 0 mm 1 mps 753 mmHg 56%
    19:00 +24°C° 0 mm 1 mps 753 mmHg 61%
    20:00 +24°C° 0 mm 1 mps 753 mmHg 63%
    21:00 +23°C° 0 mm 1 mps 753 mmHg 65%
    22:00 +23°C° 0 mm 2 mps 753 mmHg 66%
    23:00 +21°C° 0 mm 2 mps 753 mmHg 68%

    Day after tomorrow, 21 September, Friday

    Time Temperature Precipitation Wind Pressure Humidity
    00:00 +21°C° 0 mm 2 mps 752 mmHg 70%
    01:00 +20°C° 0 mm 2 mps 752 mmHg 71%
    02:00 +20°C° 0 mm 2 mps 752 mmHg 72%
    03:00 +20°C° 0 mm 2 mps 751 mmHg 74%
    04:00 +19°C° 0 mm 3 mps 751 mmHg 75%
    05:00 +20°C° 0 mm 3 mps 751 mmHg 73%
    06:00 +20°C° 0 mm 3 mps 751 mmHg 72%
    07:00 +20°C° 0 mm 3 mps 750 mmHg 70%
    08:00 +22°C° 0 mm 4 mps 750 mmHg 62%
    09:00 +25°C° 0 mm 5 mps 750 mmHg 54%
    10:00 +27°C° 0 mm 5 mps 749 mmHg 47%
    11:00 +28°C° 0 mm 6 mps 749 mmHg 43%
    12:00 +29°C° 0 mm 6 mps 748 mmHg 40%
    13:00 +30°C° 0 mm 7 mps 748 mmHg 37%
    14:00 +30°C° 0 mm 6 mps 747 mmHg 39%
    15:00 +29°C° 0 mm 6 mps 746 mmHg 40%
    16:00 +29°C° 0 mm 6 mps 746 mmHg 42%
    17:00 +28°C° 0 mm 6 mps 745 mmHg 45%
    18:00 +26°C° 0 mm 5 mps 745 mmHg 47%
    19:00 +25°C° 0 mm 5 mps 744 mmHg 49%
    20:00 +24°C° 0 mm 6 mps 745 mmHg 49%
    21:00 +24°C° 0 mm 6 mps 745 mmHg 48%
    22:00 +24°C° 0 mm 7 mps 745 mmHg 48%
    23:00 +21°C° 0.6 mm 8 mps 746 mmHg 58%

    22 September, Saturday

    Time Temperature Precipitation Wind Pressure Humidity
    00:00 +16°C° 0.6 mm 8 mps 747 mmHg 68%
    01:00 +12°C° 0.6 mm 9 mps 748 mmHg 78%
    02:00 +12°C° 1.1 mm 8 mps 749 mmHg 77%
    03:00 +11°C° 1.1 mm 7 mps 750 mmHg 76%
    04:00 +11°C° 1.1 mm 6 mps 752 mmHg 75%
    05:00 +11°C° 0 mm 6 mps 752 mmHg 73%
    06:00 +12°C° 0 mm 5 mps 753 mmHg 71%
    07:00 +10°C° 0 mm 5 mps 753 mmHg 69%
    08:00 +11°C° 0 mm 6 mps 753 mmHg 66%
    09:00 +13°C° 0 mm 6 mps 754 mmHg 62%
    10:00 +12°C° 0 mm 7 mps 754 mmHg 59%
    11:00 +14°C° 0 mm 7 mps 754 mmHg 55%
    12:00 +15°C° 0 mm 7 mps 754 mmHg 51%
    13:00 +16°C° 0 mm 7 mps 754 mmHg 47%
    14:00 +16°C° 0 mm 7 mps 754 mmHg 47%
    15:00 +16°C° 0 mm 6 mps 754 mmHg 46%
    16:00 +16°C° 0 mm 6 mps 754 mmHg 46%
    17:00 +15°C° 0 mm 5 mps 754 mmHg 50%
    18:00 +14°C° 0 mm 4 mps 754 mmHg 53%
    19:00 +13°C° 0 mm 3 mps 754 mmHg 57%
    20:00 +12°C° 0 mm 3 mps 755 mmHg 59%
    21:00 +12°C° 0 mm 3 mps 755 mmHg 61%
    22:00 +11°C° 0 mm 4 mps 755 mmHg 62%
    23:00 +11°C° 0 mm 3 mps 755 mmHg 64%

    23 September, Sunday

    Time Temperature Precipitation Wind Pressure Humidity
    00:00 +10°C° 0 mm 3 mps 755 mmHg 66%
    01:00 +10°C° 0 mm 3 mps 755 mmHg 68%
    02:00 +9°C° 0 mm 3 mps 755 mmHg 70%
    03:00 +9°C° 0 mm 3 mps 755 mmHg 72%
    04:00 +9°C° 0 mm 3 mps 755 mmHg 74%
    05:00 +9°C° 0 mm 3 mps 754 mmHg 72%
    06:00 +9°C° 0 mm 3 mps 754 mmHg 70%
    07:00 +10°C° 0 mm 3 mps 754 mmHg 68%
    08:00 +12°C° 0 mm 3 mps 754 mmHg 62%
    09:00 +13°C° 0 mm 3 mps 754 mmHg 56%
    10:00 +15°C° 0 mm 4 mps 753 mmHg 49%
    11:00 +17°C° 0 mm 4 mps 752 mmHg 46%
    12:00 +17°C° 0 mm 5 mps 751 mmHg 43%
    13:00 +19°C° 0 mm 5 mps 750 mmHg 41%
    14:00 +16°C° 0.4 mm 5 mps 749 mmHg 49%
    15:00 +15°C° 0.4 mm 4 mps 748 mmHg 57%
    16:00 +14°C° 0.4 mm 4 mps 747 mmHg 65%
    17:00 +13°C° 0.6 mm 4 mps 746 mmHg 67%
    18:00 +13°C° 0.6 mm 5 mps 745 mmHg 70%
    19:00 +13°C° 0.6 mm 6 mps 744 mmHg 73%
    20:00 +13°C° 0.6 mm 6 mps 743 mmHg 74%
    21:00 +13°C° 0.6 mm 6 mps 741 mmHg 74%
    22:00 +13°C° 0.6 mm 6 mps 740 mmHg 75%
    23:00 +12°C° 2.9 mm 7 mps 739 mmHg 77%

    24 September, Monday

    Time Temperature Precipitation Wind Pressure Humidity
    00:00 +12°C° 2.9 mm 7 mps 739 mmHg 79%
    01:00 +12°C° 2.9 mm 7 mps 739 mmHg 81%
    02:00 +12°C° 1.1 mm 7 mps 738 mmHg 80%
    03:00 +13°C° 1.1 mm 6 mps 738 mmHg 80%
    04:00 +11°C° 1.1 mm 6 mps 737 mmHg 80%
    05:00 +11°C° 0.2 mm 6 mps 737 mmHg 78%
    06:00 +11°C° 0.2 mm 7 mps 736 mmHg 76%
    07:00 +10°C° 0.2 mm 7 mps 736 mmHg 74%
    08:00 +11°C° 0.1 mm 8 mps 736 mmHg 72%
    09:00 +12°C° 0.1 mm 8 mps 736 mmHg 70%
    10:00 +13°C° 0.1 mm 9 mps 736 mmHg 69%
    11:00 +13°C° 0.2 mm 9 mps 736 mmHg 69%
    12:00 +13°C° 0.2 mm 8 mps 737 mmHg 70%
    13:00 +13°C° 0.2 mm 8 mps 737 mmHg 70%
    14:00 +12°C° 0.3 mm 8 mps 738 mmHg 72%
    15:00 +11°C° 0.3 mm 8 mps 738 mmHg 74%
    16:00 +10°C° 0.3 mm 9 mps 739 mmHg 76%
    17:00 +10°C° 0.1 mm 8 mps 739 mmHg 77%
    18:00 +10°C° 0.1 mm 8 mps 739 mmHg 77%
    19:00 +9°C° 0.1 mm 7 mps 740 mmHg 78%
    20:00 +9°C° 0.3 mm 7 mps 740 mmHg 80%
    21:00 +10°C° 0.3 mm 7 mps 741 mmHg 83%
    22:00 +10°C° 0.3 mm 7 mps 741 mmHg 85%
    23:00 +9°C° 1 mm 8 mps 741 mmHg 86%
    Show more